Regional Weather Roundup
Issued by NWS

Home | Current Version | Previous Version | Graphics & Text | Print | Product List | Glossary On
Versions: 1 2 3 4 5 6 7 8 9 10 11 12 13 14 15 16 17 18 19 20 21 22 23 24 25 26 27 28 29 30 31 32 33 34 35 36 37 38 39 40 41 42 43 44 45 46 47 48 49 50
000
ASUS43 KMKX 260200
RWRWI

WISCONSIN REGIONAL WEATHER ROUNDUP
NATIONAL WEATHER SERVICE MILWAUKEE/SULLIVAN WI
900 PM CDT MON SEP 25 2017

NOTE: "FAIR" INDICATES FEW OR NO CLOUDS BELOW 12,000 FEET WITH NO
SIGNIFICANT WEATHER AND/OR OBSTRUCTIONS TO VISIBILITY.

WIZ001-002-006>008-014>016-023>028-260300-
NORTHWEST WISCONSIN

CITY           SKY/WX    TMP DP  RH WIND       PRES   REMARKS
SUPERIOR ARPT  CLOUDY    58  55  90 N3        30.01S
ASHLAND        CLOUDY    58  57  97 NE5       30.01S
HAYWARD        CLOUDY    57  55  93 N3        30.00S
SIREN          CLOUDY    57  55  91 N3        30.00S
CUMBERLAND     CLOUDY    55  54  94 N6        29.99R
RICE LAKE      CLOUDY    59  57  94 CALM      30.00R
CHETEK         CLOUDY    60  59  96 N6        29.98R
LADYSMITH      CLOUDY    62  60  93 N5        30.00S
EAU CLAIRE     NOT AVBL
MENOMONIE      CLOUDY    63  59  87 NW7       29.97S
NEW RICHMOND   CLOUDY    59  57  93 NE8       29.99S
OSCEOLA        CLOUDY    59  59 100 N6        30.01S
$$

WIZ003>005-009-010-017-018-260300-
NORTH CENTRAL WISCONSIN

CITY           SKY/WX    TMP DP  RH WIND       PRES   REMARKS
MANITOWISH WTR CLOUDY    61  61 100 N5        30.00
ARBOR VITAE    MOCLDY    63  62  95 N7        29.96F
WOODRUFF       MOCLDY    63  62  95 N7        29.96F
RHINELANDER    PTCLDY    65  65 100 CALM      29.97S
EAGLE RIVER    RAIN      62  62  99 NE12      29.97F
LAND O LAKES   CLOUDY    62  61  96 NE3       30.02S
PHILLIPS       CLOUDY    61  61 100 N8        29.97F
TOMAHAWK       PTCLDY    62  61  95 CALM      29.97R FOG
MEDFORD        PTCLDY    65  62  89 CALM      29.95F
MERRILL        CLOUDY    71  65  82 CALM      29.97R
$$

WIZ029-030-035-036-043>047-260300-
CENTRAL WISCONSIN

CITY           SKY/WX    TMP DP  RH WIND       PRES   REMARKS
WAUSAU         LGT RAIN  68  66  93 S8        29.95R
MOSINEE        CLOUDY    66  64  94 S7        29.98S
MARSHFIELD     CLOUDY    67  61  81 S6        29.95R
STEVENS POINT  CLOUDY    71  61  71 NW3       29.96S
WAUPACA        CLOUDY    72  68  87 CALM      29.94R
WAUTOMA        CLOUDY    72  64  76 CALM      29.94S
WISC RAPIDS    HVY RAIN  68  64  87 NW7       29.96F FOG
CAMP DOUGLAS   NOT AVBL
$$

WIZ011>013-019>022-031-037>040-048>050-260300-
NORTHEAST WISCONSIN

CITY           SKY/WX    TMP DP  RH WIND       PRES   REMARKS
ANTIGO         CLOUDY    66  64  94 SE3       29.97R
SHAWANO        CLEAR     77  64  65 S3        29.93R
OCONTO         CLEAR     72  64  75 S3        29.92S
STURGEON BAY   CLEAR     73  61  65 S8        29.94R
GREEN BAY      CLEAR     74  63  68 S6        29.93R
MANITOWOC      CLEAR     70  63  78 S6        29.94S
APPLETON       MOCLDY    73  57  56 W10       29.94R
CLINTONVILLE   MOCLDY    75  63  64 CALM      29.93R
OSHKOSH        CLEAR     69  61  75 S7        29.92S
$$

WIZ032>034-041-042-053>061-260300-
SOUTHWEST WISCONSIN

CITY           SKY/WX    TMP DP  RH WIND       PRES   REMARKS
LA CROSSE      CLOUDY    71  66  84 W7        29.95R
SPARTA         CLOUDY    65  63  92 CALM      29.94F
VIROQUA        CLOUDY    66  65  94 E7        29.94F
BOSCOBEL       PTCLDY    67  65  93 CALM      29.92F
PRAIRIE DU CHI RAIN      68  64  89 SE3       29.97R
PLATTEVILLE    PTCLDY    72  65  80 E8        29.92F
$$

WIZ056-057-062-063-064-067-068-260300-
SOUTH CENTRAL WISCONSIN

CITY           SKY/WX    TMP DP  RH WIND       PRES   REMARKS
REEDSBURG      PTCLDY    68  67  96 CALM      29.93F
BARABOO/DELLS  PTCLDY    69  62  78 CALM      29.95R
LONE ROCK      PTCLDY    67  66  97 CALM      29.92F
MINERAL POINT  PTCLDY    70  64  83 NE5       29.94S
MADISON        PTCLDY    70  63  78 NE3       29.93F
MIDDLETON      CLEAR     71  63  76 CALM      29.95R
WATERTOWN      CLEAR     74  59  59 SE6       29.93S
MONROE         PTCLDY    72  63  73 NW8G18    29.95R
JANESVILLE     PTCLDY    75  59  57 SE5       29.93R
$$

WIZ051-052-058>065-066-070>072-260300-
SOUTHEAST WISCONSIN

CITY           SKY/WX    TMP DP  RH WIND       PRES   REMARKS
MILWAUKEE      PTCLDY    76  60  57 S6        29.94S
WAUKESHA       CLEAR     72  57  60 SE6       29.96S
MILWAUKEE/TIMM CLEAR     75  54  46 S6        29.95S
RACINE         CLEAR     74  64  71 S5        29.96S
BURLINGTON     CLEAR     68  60  74 CALM      29.94S
KENOSHA        CLEAR     74  59  59 S6        29.95S
FOND DU LAC    CLEAR     71  60  68 SE6       29.93S
SHEBOYGAN      CLEAR     67  65  93 CALM      29.94S
WEST BEND        N/A     70  57  64 CALM      29.95S
JUNEAU         PTCLDY    73  59  62 SE6       29.95S
$$

LSZ147-162-260300-
LAKE SUPERIOR

STATION/POSITION TIME  TEMP    WIND        PRES    WAVE
                       AIR SEA DIR/SP/G            HT/PER
                 (UTC) (F)     (DEG/KT/KT) (MB)    (FT/S)
W MID LAKE BUOY  0050   58 56   60/ 10/ 12 1016.1R   0
DEVILS ISLAND    0100   59      60/  9/ 10 1016.1R
SAXON HARBOR     0140   61      20/  5/  7 1015.9S
$$

LMZ867-665-643>646-260300-
LAKE MICHIGAN

STATION/POSITION TIME  TEMP    WIND        PRES    WAVE
                       AIR SEA DIR/SP/G            HT/PER
                 (UTC) (F)     (DEG/KT/KT) (MB)    (FT/S)
N MID LAKE BUOY  0050   69 68  140/  4/  6 1014.0R   1
NORTHPORT PIER   0140   74     190/  4/  8 1013.2S
KEWAUNEE LAKESHO 0124   66     160/  3/  4 1013.1
SHEBOYGAN LAKESH 0100   72     200/  9/ 10 1013.3R
PORT WASHINGTON  0140   71     190/  5/  6 1014.6S
ATWATER BUOY     0009   67 62  170/  6/  8 1013.8R
MILWAUKEE LAKESH 0130   70     140/  3/  3   N/A
S MID LAKE BUOY  0050   74 71  100/  6/  6 1013.8S   0
KENOSHA   LAKESH 0100   76     180/  9/ 10 1013.5
$$

TC  - TEMPERATURE IN CELSIUS
VSB - VISIBILITY IN STATUTE MILES
WCI - WIND CHILL INDEX
HX  - HEAT INDEX





USA.gov is the U.S. government's official web portal to all federal, state and local government web resources and services.